H1 CPF 2 NER 2025 11 21 9 325 01 glonass138 H2 1805301 9138 43508 2025 11 21 0 0 0 2025 11 24 23 45 0 900 1 1 0 0 0 1 H9 10 0 61000 0.00000 0 -20037394.554 -12320185.620 -9822175.316 10 0 61000 900.00000 0 -18774629.612 -11714284.506 -12651266.115 10 0 61000 1800.00000 0 -17147858.101 -11120372.556 -15234100.253 10 0 61000 2700.00000 0 -15187010.047 -10593374.546 -17520435.219 10 0 61000 3600.00000 0 -12933936.496 -10182487.613 -19465823.824 10 0 61000 4500.00000 0 -10440866.653 -9928967.068 -21032479.681 10 0 61000 5400.00000 0 -7768439.825 -9864264.682 -22190009.894 10 0 61000 6300.00000 0 -4983394.528 -10008598.233 -22916001.120 10 0 61000 7200.00000 0 -2156011.343 -10370012.493 -23196448.179 10 0 61000 8100.00000 0 642584.003 -10943970.909 -23026017.686 10 0 61000 9000.00000 0 3343145.335 -11713494.680 -22408142.416 10 0 61000 9900.00000 0 5880945.729 -12649842.856 -21354945.329 10 0 61000 10800.00000 0 8198223.333 -13713704.370 -19886995.444 10 0 61000 11700.00000 0 10246332.777 -14856851.480 -18032900.807 10 0 61000 12600.00000 0 11987514.096 -16024184.866 -15828746.813 10 0 61000 13500.00000 0 13396207.155 -17156084.252 -13317391.023 10 0 61000 14400.00000 0 14459858.578 -18190965.775 -10547628.195 10 0 61000 15300.00000 0 15179189.307 -19067938.631 -7573241.777 10 0 61000 16200.00000 0 15567913.415 -19729449.470 -4451960.213 10 0 61000 17100.00000 0 15651921.631 -20123803.497 -1244338.206 10 0 61000 18000.00000 0 15467965.296 -20207456.426 1987415.376 10 0 61000 18900.00000 0 15061897.236 -19946981.018 5180640.347 10 0 61000 19800.00000 0 14486544.439 -19320625.560 8273435.615 10 0 61000 20700.00000 0 13799302.620 -18319398.687 11205853.853 10 0 61000 21600.00000 0 13059554.246 -16947634.714 13921057.595 10 0 61000 22500.00000 0 12326018.688 -15223015.264 16366414.765 10 0 61000 23400.00000 0 11654145.895 -13176045.538 18494512.890 10 0 61000 24300.00000 0 11093662.902 -10849006.153 20264072.982 10 0 61000 25200.00000 0 10686376.031 -8294423.057 21640745.995 10 0 61000 26100.00000 0 10464320.916 -5573117.932 22597776.997 10 0 61000 27000.00000 0 10448337.949 -2751918.707 23116524.650 10 0 61000 27900.00000 0 10647133.156 98876.256 23186826.195 10 0 61000 28800.00000 0 11056864.366 2908176.438 22807200.814 10 0 61000 29700.00000 0 11661270.793 5606810.121 21984887.112 10 0 61000 30600.00000 0 12432341.587 8130156.705 20735713.356 10 0 61000 31500.00000 0 13331496.445 10420591.900 19083802.067 10 0 61000 32400.00000 0 14311229.851 12429644.829 17061113.619 10 0 61000 33300.00000 0 15317150.941 14119777.609 14706836.507 10 0 61000 34200.00000 0 16290333.956 15465713.306 12066635.046 10 0 61000 35100.00000 0 17169880.803 16455256.837 9191768.145 10 0 61000 36000.00000 0 17895587.724 17089574.373 6138095.668 10 0 61000 36900.00000 0 18410603.128 17382919.551 2964991.418 10 0 61000 37800.00000 0 18663963.512 17361818.164 -265815.917 10 0 61000 38700.00000 0 18612899.163 17063746.091 -3491450.828 10 0 61000 39600.00000 0 18224810.755 16535356.849 -6649123.594 10 0 61000 40500.00000 0 17478831.846 15830334.538 -9677362.383 10 0 61000 41400.00000 0 16366909.816 15006964.000 -12517219.684 10 0 61000 42300.00000 0 14894358.358 14125522.115 -15113428.380 10 0 61000 43200.00000 0 13079857.176 13245601.715 -17415484.059 10 0 61000 44100.00000 0 10954898.147 12423482.262 -19378631.776 10 0 61000 45000.00000 0 8562700.729 11709659.190 -20964737.741 10 0 61000 45900.00000 0 5956641.835 11146636.708 -22143028.989 10 0 61000 46800.00000 0 3198265.728 10767077.274 -22890686.994 10 0 61000 47700.00000 0 354957.044 10592385.559 -23193284.289 10 0 61000 48600.00000 0 -2502626.150 10631786.006 -23045056.371 10 0 61000 49500.00000 0 -5303252.635 10881932.077 -22449004.443 10 0 61000 50400.00000 0 -7977839.714 11327062.779 -21416827.798 10 0 61000 51300.00000 0 -10462083.834 11939699.016 -19968687.855 10 0 61000 52200.00000 0 -12698891.747 12681849.648 -18132808.966 10 0 61000 53100.00000 0 -14640512.265 13506675.889 -15944924.117 10 0 61000 54000.00000 0 -16250281.310 14360543.472 -13447576.509 10 0 61000 54900.00000 0 -17503909.117 15185375.935 -10689290.613 10 0 61000 55800.00000 0 -18390257.512 15921209.759 -7723628.844 10 0 61000 56700.00000 0 -18911576.473 16508843.735 -4608152.054 10 0 61000 57600.00000 0 -19083191.643 16892471.017 -1403303.970 10 0 61000 58500.00000 0 -18932657.355 17022183.067 1828758.865 10 0 61000 59400.00000 0 -18498411.937 16856240.088 5025369.024 10 0 61000 60300.00000 0 -17827992.748 16363012.372 8124558.855 10 0 61000 61200.00000 0 -16975886.647 15522510.718 11066256.534 10 0 61000 62100.00000 0 -16001106.664 14327441.310 13793444.629 10 0 61000 63000.00000 0 -14964596.814 12783740.240 16253259.143 10 0 61000 63900.00000 0 -13926574.029 10910564.502 18398008.205 10 0 61000 64800.00000 0 -12943918.518 8739738.829 20186091.290 10 0 61000 65700.00000 0 -12067721.703 6314680.165 21582801.801 10 0 61000 66600.00000 0 -11341094.188 3688843.215 22560998.013 10 0 61000 67500.00000 0 -10797325.337 923750.126 23101629.886 10 0 61000 68400.00000 0 -10458471.408 -1913315.465 23194111.771 10 0 61000 69300.00000 0 -10334431.468 -4751855.867 22836533.798 10 0 61000 70200.00000 0 -10422550.104 -7520844.039 22035707.525 10 0 61000 71100.00000 0 -10707764.133 -10151435.507 20807044.340 10 0 61000 72000.00000 0 -11163287.859 -12579595.854 19174268.082 10 0 61000 72900.00000 0 -11751808.974 -14748535.390 17168966.400 10 0 61000 73800.00000 0 -12427145.643 -16610850.096 14829988.333 10 0 61000 74700.00000 0 -13136295.752 -18130279.731 12202698.757 10 0 61000 75600.00000 0 -13821792.406 -19283009.634 9338103.188 10 0 61000 76500.00000 0 -14424266.437 -20058461.560 6291859.291 10 0 61000 77400.00000 0 -14885107.382 -20459540.177 3123194.057 10 0 61000 78300.00000 0 -15149109.742 -20502324.794 -106252.195 10 0 61000 79200.00000 0 -15166991.538 -20215219.391 -3333631.976 10 0 61000 80100.00000 0 -14897677.214 -19637597.109 -6496122.591 10 0 61000 81000.00000 0 -14310246.840 -18817997.058 -9532158.836 10 0 61000 81900.00000 0 -13385467.598 -17811950.407 -12382641.272 10 0 61000 82800.00000 0 -12116841.416 -16679528.643 -14992095.349 10 0 61000 83700.00000 0 -10511123.276 -15482718.620 -17309757.863 10 0 61000 84600.00000 0 -8588287.317 -14282736.270 -19290568.927 10 0 61000 85500.00000 0 -6380941.415 -13137393.132 -20896049.743 10 0 61001 0.00000 0 -3933214.543 -12098627.403 -22095049.056 10 0 61001 900.00000 0 -1299161.797 -11210303.102 -22864344.663 10 0 61001 1800.00000 0 1459243.080 -10506371.187 -23189087.343 10 0 61001 2700.00000 0 4274448.447 -10009467.503 -23063081.524 10 0 61001 3600.00000 0 7075898.304 -9730007.035 -22488896.321 10 0 61001 4500.00000 0 9792733.069 -9665810.857 -21477806.326 10 0 61001 5400.00000 0 12356505.611 -9802280.336 -20049563.871 10 0 61001 6300.00000 0 14703800.336 -10113110.054 -18232007.715 10 0 61001 7200.00000 0 16778647.302 -10561508.373 -16060516.154 10 0 61001 8100.00000 0 18534632.041 -11101873.341 -13577315.371 10 0 61001 9000.00000 0 19936614.504 -11681852.658 -10830656.556 10 0 61001 9900.00000 0 20961986.827 -12244700.422 -7873877.765 10 0 61001 10800.00000 0 21601418.840 -12731831.009 -4764368.694 10 0 61001 11700.00000 0 21859061.594 -13085462.250 -1562458.356 10 0 61001 12600.00000 0 21752201.694 -13251236.411 1669752.808 10 0 61001 13500.00000 0 21310382.137 -13180708.422 4869593.827 10 0 61001 14400.00000 0 20574027.486 -12833596.446 7975033.964 10 0 61001 15300.00000 0 19592631.818 -12179699.874 10925880.037 10 0 61001 16200.00000 0 18422585.943 -11200403.723 13664937.365 10 0 61001 17100.00000 0 17124735.278 -9889705.756 16139112.265 10 0 61001 18000.00000 0 15761770.767 -8254722.471 18300435.199 10 0 61001 18900.00000 0 14395561.931 -6315651.789 20106985.332 10 0 61001 19800.00000 0 13084543.387 -4105192.712 21523699.262 10 0 61001 20700.00000 0 11881263.741 -1667444.710 22523048.766 10 0 61001 21600.00000 0 10830198.936 943668.986 23085574.965 10 0 61001 22500.00000 0 9965921.066 3666390.374 23200268.800 10 0 61001 23400.00000 0 9311698.994 6433447.019 22864790.468 10 0 61001 24300.00000 0 8878589.228 9174609.100 22085523.268 10 0 61001 25200.00000 0 8665055.202 11819378.451 20877460.214 10 0 61001 26100.00000 0 8657131.261 14299699.106 19263924.721 10 0 61001 27000.00000 0 8829124.921 16552577.562 17276129.751 10 0 61001 27900.00000 0 9144828.432 18522504.247 14952582.746 10 0 61001 28800.00000 0 9559189.176 20163575.390 12338346.835 10 0 61001 29700.00000 0 10020368.860 21441226.624 9484171.684 10 0 61001 30600.00000 0 10472104.720 22333505.466 6445510.184 10 0 61001 31500.00000 0 10856272.727 22831828.931 3281439.817 10 0 61001 32400.00000 0 11115543.787 22941194.118 53509.792 10 0 61001 33300.00000 0 11196019.562 22679832.686 -3175463.176 10 0 61001 34200.00000 0 11049735.009 22078323.822 -6342626.094 10 0 61001 35100.00000 0 10636920.236 21178203.360 -9386322.916 10 0 61001 36000.00000 0 9927924.333 20030128.344 -12247304.597 10 0 61001 36900.00000 0 8904718.301 18691675.272 -14869891.213 10 0 61001 37800.00000 0 7561912.155 17224865.857 -17203062.563 10 0 61001 38700.00000 0 5907242.096 15693525.590 -19201455.338 10 0 61001 39600.00000 0 3961506.269 14160587.268 -20826246.996 10 0 61001 40500.00000 0 1757951.118 12685453.613 -22045909.199 10 0 61001 41400.00000 0 -658866.479 11321530.156 -22836816.426 10 0 61001 42300.00000 0 -3234693.946 10114031.956 -23183698.510 10 0 61001 43200.00000 0 -5907607.450 9098155.703 -23079929.066 10 0 61001 44100.00000 0 -8610361.820 8297692.962 -22527645.043 10 0 61001 45000.00000 0 -11272968.330 7724141.547 -21537695.870 10 0 61001 45900.00000 0 -13825393.442 7376350.847 -20129423.908 10 0 61001 46800.00000 0 -16200266.790 7240714.465 -18330281.030 10 0 61001 47700.00000 0 -18335486.388 7291900.583 -16175289.165 10 0 61001 48600.00000 0 -20176613.514 7494087.980 -13706355.495 10 0 61001 49500.00000 0 -21678958.508 7802654.532 -10971455.704 10 0 61001 50400.00000 0 -22809271.612 8166246.173 -8023701.121 10 0 61001 51300.00000 0 -23546969.442 8529138.441 -4920307.817 10 0 61001 52200.00000 0 -23884847.029 8833790.584 -1721487.576 10 0 61001 53100.00000 0 -23829246.761 9023484.186 1510717.806 10 0 61001 54000.00000 0 -23399678.192 9044934.856 4713636.373 10 0 61001 54900.00000 0 -22627905.538 8850766.681 7825176.885 10 0 61001 55800.00000 0 -21556541.776 8401745.012 10785027.375 10 0 61001 56700.00000 0 -20237208.748 7668673.279 13535818.458 10 0 61001 57600.00000 0 -18728340.577 6633873.645 16024229.235 10 0 61001 58500.00000 0 -17092722.343 5292188.678 18202014.814 10 0 61001 59400.00000 0 -15394866.823 3651461.130 20026936.164 10 0 61001 60300.00000 0 -13698338.513 1732470.594 21463574.899 10 0 61001 61200.00000 0 -12063136.243 -431671.760 22484017.793 10 0 61001 62100.00000 0 -10543243.048 -2796646.757 23068398.252 10 0 61001 63000.00000 0 -9184444.975 -5308524.105 23205284.541 10 0 61001 63900.00000 0 -8022509.350 -7905768.000 22891907.274 10 0 61001 64800.00000 0 -7081798.195 -10521569.876 22134221.453 10 0 61001 65700.00000 0 -6374374.466 -13086412.989 20946801.300 10 0 61001 66600.00000 0 -5899638.510 -15530763.589 19352569.027 10 0 61001 67500.00000 0 -5644510.045 -17787777.767 17382361.765 10 0 61001 68400.00000 0 -5584148.267 -19795911.945 15074343.875 10 0 61001 69300.00000 0 -5683180.083 -21501328.344 12473274.945 10 0 61001 70200.00000 0 -5897384.928 -22859994.902 9629646.708 10 0 61001 71100.00000 0 -6175765.135 -23839391.380 6598704.958 10 0 61001 72000.00000 0 -6462914.174 -24419749.553 3439375.158 10 0 61001 72900.00000 0 -6701582.054 -24594774.824 213112.716 10 0 61001 73800.00000 0 -6835328.396 -24371818.380 -3017299.248 10 0 61001 74700.00000 0 -6811149.636 -23771492.305 -6188980.386 10 0 61001 75600.00000 0 -6581967.637 -22826743.792 -9240186.853 10 0 61001 76500.00000 0 -6108872.768 -21581427.725 -12111523.093 10 0 61001 77400.00000 0 -5363024.936 -20088438.333 -14747106.899 10 0 61001 78300.00000 0 -4327130.715 -18407479.377 -17095664.077 10 0 61001 79200.00000 0 -2996432.901 -16602567.622 -19111530.696 10 0 61001 80100.00000 0 -1379169.661 -14739375.468 -20755542.978 10 0 61001 81000.00000 0 503516.835 -12882525.102 -21995797.516 10 0 61001 81900.00000 0 2618219.127 -11092948.136 -22808267.320 10 0 61001 82800.00000 0 4920424.149 -9425421.507 -23177262.260 10 0 61001 83700.00000 0 7356145.678 -7926382.478 -23095725.744 10 0 61001 84600.00000 0 9863961.619 -6632113.393 -22565362.649 10 0 61001 85500.00000 0 12377371.344 -5567371.001 -21596596.872 10 0 61002 0.00000 0 14827374.941 -4744516.271 -20208360.141 10 0 61002 900.00000 0 17145168.630 -4163179.035 -18427715.966 10 0 61002 1800.00000 0 19264841.278 -3810470.812 -16289328.361 10 0 61002 2700.00000 0 21125964.723 -3661733.677 -13834783.429 10 0 61002 3600.00000 0 22675967.350 -3681793.299 -11111778.826 10 0 61002 4500.00000 0 23872194.077 -3826661.619 -8173196.211 10 0 61002 5400.00000 0 24683567.409 -4045616.471 -5076074.720 10 0 61002 6300.00000 0 25091781.107 -4283569.701 -1880505.306 10 0 61002 7200.00000 0 25091977.387 -4483623.351 1351532.645 10 0 61002 8100.00000 0 24692880.191 -4589705.688 4557369.989 10 0 61002 9000.00000 0 23916379.646 -4549175.671 7674858.663 10 0 61002 9900.00000 0 22796585.658 -4315285.793 10643571.360 10 0 61002 10800.00000 0 21378390.672 -3849399.332 13405967.094 10 0 61002 11700.00000 0 19715601.871 -3122868.340 15908500.432 10 0 61002 12600.00000 0 17868720.886 -2118492.917 18102653.376 10 0 61002 13500.00000 0 15902463.543 -831499.805 19945870.473 10 0 61002 14400.00000 0 13883122.706 730001.732 21402379.685 10 0 61002 15300.00000 0 11875883.653 2545107.047 22443883.665 10 0 61002 16200.00000 0 9942203.180 4580744.180 23050108.557 10 0 61002 17100.00000 0 8137360.896 6792818.380 23209199.978 10 0 61002 18000.00000 0 6508284.052 9127827.215 22917958.554 10 0 61002 18900.00000 0 5091735.913 11524880.895 22181910.182 10 0 61002 19800.00000 0 3912942.750 13918045.486 21015209.081 10 0 61002 20700.00000 0 2984716.449 16238912.978 19440374.676 10 0 61002 21600.00000 0 2307109.273 18419292.403 17487866.363 10 0 61002 22500.00000 0 1867615.160 20393910.656 15195503.228 10 0 61002 23400.00000 0 1641909.182 22103010.637 12607738.880 10 0 61002 24300.00000 0 1595094.063 23494738.099 9774804.489 10 0 61002 25200.00000 0 1683401.164 24527216.875 6751735.949 10 0 61002 26100.00000 0 1856273.882 25170224.792 3597303.776 10 0 61002 27000.00000 0 2058744.854 25406399.054 372866.581 10 0 61002 27900.00000 0 2234005.577 25231919.624 -2858829.124 10 0 61002 28800.00000 0 2326058.484 24656641.149 -6034878.585 10 0 61002 29700.00000 0 2282337.794 23703667.408 -9093452.955 10 0 61002 30600.00000 0 2056186.615 22408386.077 -11975012.752 10 0 61002 31500.00000 0 1609083.838 20817004.647 -14623475.799 10 0 61002 32400.00000 0 912525.129 18984649.557 -16987315.925 10 0 61002 33300.00000 0 -50522.827 16973109.177 -19020570.288 10 0 61002 34200.00000 0 -1284657.337 14848316.176 -20683735.296 10 0 61002 35100.00000 0 -2781605.516 12677675.631 -21944533.611 10 0 61002 36000.00000 0 -4520339.831 10527351.321 -22778537.635 10 0 61002 36900.00000 0 -6467738.973 8459623.986 -23169637.855 10 0 61002 37800.00000 0 -8579766.652 6530431.835 -23110347.716 10 0 61002 38700.00000 0 -10803119.228 4787195.383 -22601939.920 10 0 61002 39600.00000 0 -13077273.466 3267016.471 -21654412.317 10 0 61002 40500.00000 0 -15336849.132 1995325.223 -20286284.778 10 0 61002 41400.00000 0 -17514188.151 985029.757 -18524231.590 10 0 61002 42300.00000 0 -19542043.022 236202.349 -16402556.897 10 0 61002 43200.00000 0 -21356262.841 -263686.767 -13962523.656 10 0 61002 44100.00000 0 -22898365.341 -538999.643 -11251549.184 10 0 61002 45000.00000 0 -24117888.152 -624658.898 -8322282.988 10 0 61002 45900.00000 0 -24974421.706 -564428.966 -5231584.672 10 0 61002 46800.00000 0 -25439239.440 -408823.828 -2039421.702 10 0 61002 47700.00000 0 -25496457.755 -212730.267 1192291.653 10 0 61002 48600.00000 0 -25143677.767 -32847.471 4400891.798 10 0 61002 49500.00000 0 -24392082.504 74948.611 7524176.593 10 0 61002 50400.00000 0 -23265985.856 58204.748 10501606.132 10 0 61002 51300.00000 0 -21801852.376 -129656.037 13275470.504 10 0 61002 52200.00000 0 -20046828.968 -527130.450 15792002.311 10 0 61002 53100.00000 0 -18056849.657 -1162773.461 18002412.806 10 0 61002 54000.00000 0 -15894392.219 -2053758.141 19863832.211 10 0 61002 54900.00000 0 -13625979.649 -3204917.944 21340136.576 10 0 61002 55800.00000 0 -11319529.911 -4608312.597 22402645.779 10 0 61002 56700.00000 0 -9041663.445 -6243337.001 23030679.619 10 0 61002 57600.00000 0 -6855079.618 -8077370.203 23211961.559 10 0 61002 58500.00000 0 -4816110.360 -10066939.002 22942862.328 10 0 61002 59400.00000 0 -2972552.012 -12159349.515 22228478.421 10 0 61002 60300.00000 0 -1361864.912 -14294720.461 21082543.421 10 0 61002 61200.00000 0 -9815.276 -16408335.001 19527173.015 10 0 61002 62100.00000 0 1070384.340 -18433214.395 17592447.611 10 0 61002 63000.00000 0 1878400.305 -20302807.049 15315839.483 10 0 61002 63900.00000 0 2426555.385 -21953681.079 12741494.456 10 0 61002 64800.00000 0 2739067.893 -23328107.835 9919381.074 10 0 61002 65700.00000 0 2850784.675 -24376427.773 6904323.064 10 0 61002 66600.00000 0 2805461.663 -25059098.702 3754933.542 10 0 61002 67500.00000 0 2653665.075 -25348339.386 532471.733 10 0 61002 68400.00000 0 2450382.816 -25229298.348 -2700355.148 10 0 61002 69300.00000 0 2252448.175 -24700697.645 -5880620.702 10 0 61002 70200.00000 0 2115886.226 -23774923.697 -8946413.899 10 0 61002 71100.00000 0 2093296.754 -22477560.776 -11838054.160 10 0 61002 72000.00000 0 2231386.061 -20846386.579 -14499262.150 10 0 61002 72900.00000 0 2568753.566 -18929872.250 -16878262.432 10 0 61002 73800.00000 0 3134028.144 -16785250.237 -18928795.807 10 0 61002 74700.00000 0 3944434.043 -14476231.668 -20611021.149 10 0 61002 75600.00000 0 5004847.732 -12070469.503 -21892289.147 10 0 61002 76500.00000 0 6307386.045 -9636874.127 -22747773.140 10 0 61002 77400.00000 0 7831543.329 -7242893.896 -23160945.340 10 0 61002 78300.00000 0 9544872.071 -4951874.124 -23123889.897 10 0 61002 79200.00000 0 11404178.603 -2820604.213 -22637447.573 10 0 61002 80100.00000 0 13357183.873 -897154.356 -21711190.006 10 0 61002 81000.00000 0 15344579.871 780909.264 -20363224.810 10 0 61002 81900.00000 0 17302395.904 2187857.961 -18619835.883 10 0 61002 82800.00000 0 19164575.946 3310628.922 -16514966.322 10 0 61002 83700.00000 0 20865659.679 4149115.812 -14089554.255 10 0 61002 84600.00000 0 22343455.480 4715911.523 -11390734.582 10 0 61002 85500.00000 0 23541593.993 5035515.719 -8470922.167 10 0 61003 0.00000 0 24411855.843 5143042.181 -5386794.508 10 0 61003 900.00000 0 24916176.951 5082481.802 -2198191.858 10 0 61003 1800.00000 0 25028246.808 4904595.372 1033039.750 10 0 61003 2700.00000 0 24734634.760 4664526.027 4244245.750 10 0 61003 3600.00000 0 24035396.148 4419232.376 7373173.395 10 0 61003 4500.00000 0 22944133.684 4224851.011 10359173.510 10 0 61003 5400.00000 0 21487511.411 4134099.772 13144370.374 10 0 61003 6300.00000 0 19704241.443 4193831.314 15674777.440 10 0 61003 7200.00000 0 17643585.528 4442840.125 17901337.716 10 0 61003 8100.00000 0 15363433.420 4910015.465 19780869.234 10 0 61003 9000.00000 0 12928037.488 5612918.268 21276897.912 10 0 61003 9900.00000 0 10405497.062 6556842.358 22360362.254 10 0 61003 10800.00000 0 7865096.169 7734400.273 23010176.721 10 0 61003 11700.00000 0 5374604.317 9125652.267 23213643.210 10 0 61003 12600.00000 0 2997651.479 10698774.552 22966702.695 10 0 61003 13500.00000 0 791285.358 12411240.489 22274021.947 10 0 61003 14400.00000 0 -1196188.329 14211467.110 21148913.117 10 0 61003 15300.00000 0 -2926993.383 16040859.810 19613086.888 10 0 61003 16200.00000 0 -4375224.512 17836171.217 17696242.984 10 0 61003 17100.00000 0 -5527686.948 19532076.747 15435504.800 10 0 61003 18000.00000 0 -6384199.410 21063859.719 12874707.992 10 0 61003 18900.00000 0 -6957347.873 22370093.807 10063555.856 10 0 61003 19800.00000 0 -7271700.704 23395210.019 7056657.135 10 0 61003 20700.00000 0 -7362518.460 24091839.750 3912464.606 10 0 61003 21600.00000 0 -7274013.231 24422834.368 692135.078 10 0 61003 22500.00000 0 -7057231.737 24362875.138 -2541666.586 10 0 61003 23400.00000 0 -6767652.659 23899604.456 -5725995.372 10 0 61003 24300.00000 0 -6462601.063 23034229.565 -8798860.985 10 0 61003 25200.00000 0 -6198590.743 21781572.402 -11700444.517 10 0 61003 26100.00000 0 -6028708.468 20169562.846 -14374271.992 10 0 61003 27000.00000 0 -6000152.251 18238196.383 -16768320.961 10 0 61003 27900.00000 0 -6152029.061 16037999.992 -18836037.821 10 0 61003 28800.00000 0 -6513506.143 13628070.886 -20537245.569 10 0 61003 29700.00000 0 -7102394.777 11073770.669 -21838924.265 10 0 61003 30600.00000 0 -7924226.747 8444171.753 -22715849.243 10 0 61003 31500.00000 0 -8971862.706 5809362.993 -23151075.188 10 0 61003 32400.00000 0 -10225648.947 3237726.984 -23136257.376 10 0 61003 33300.00000 0 -11654116.007 793302.148 -22671804.688 10 0 61003 34200.00000 0 -13215189.622 -1466661.132 -21766862.212 10 0 61003 35100.00000 0 -14857863.184 -3493849.691 -20439124.556 10 0 61003 36000.00000 0 -16524261.561 -5250653.980 -18714484.064 10 0 61003 36900.00000 0 -18152009.839 -6711479.770 -16626521.224 10 0 61003 37800.00000 0 -19676807.894 -7863552.389 -14215847.440 10 0 61003 38700.00000 0 -21035103.167 -8707181.905 -11529313.008 10 0 61003 39600.00000 0 -22166749.899 -9255480.145 -8619095.759 10 0 61003 40500.00000 0 -23017543.699 -9533543.308 -5541687.958 10 0 61003 41400.00000 0 -23541525.514 -9577136.136 -2356801.080 10 0 61003 42300.00000 0 -23702958.660 -9430934.348 873790.391 10 0 61003 43200.00000 0 -23477896.272 -9146400.392 4087443.774 10 0 61003 44100.00000 0 -22855273.582 -8779382.766 7221858.626 10 0 61003 45000.00000 0 -21837479.294 -8387540.571 10216279.435 10 0 61003 45900.00000 0 -20440382.005 -8027702.071 13012667.563 10 0 61003 46800.00000 0 -18692810.252 -7753268.679 15556820.106 10 0 61003 47700.00000 0 -16635507.466 -7611773.648 17799414.410 10 0 61003 48600.00000 0 -14319604.771 -7642698.253 19696958.623 10 0 61003 49500.00000 0 -11804674.407 -7875637.329 21212630.470 10 0 61003 50400.00000 0 -9156443.838 -8328891.528 22316988.593 10 0 61003 51300.00000 0 -6444264.433 -9008545.870 22988543.180 10 0 61003 52200.00000 0 -3738438.706 -9908074.028 23214175.161 10 0 61003 53100.00000 0 -1107515.896 -11008486.009 22989395.926 10 0 61003 54000.00000 0 1384332.947 -12279014.382 22318442.294 10 0 61003 54900.00000 0 3679752.389 -13678311.814 21214204.385 10 0 61003 55800.00000 0 5730352.031 -15156111.325 19697986.956 10 0 61003 56700.00000 0 7498479.120 -16655281.145 17799107.819 10 0 61003 57600.00000 0 8958540.923 -18114189.362 15554339.947 10 0 61003 58500.00000 0 10097821.869 -19469279.979 13007206.989 10 0 61003 59400.00000 0 10916761.476 -20657752.728 10207144.852 10 0 61003 60300.00000 0 11428681.539 -21620233.967 7208544.884 10 0 61003 61200.00000 0 11658974.265 -22303325.766 4069696.860 10 0 61003 62100.00000 0 11643785.895 -22661924.958 851652.348 10 0 61003 63000.00000 0 11428251.946 -22661213.183 -2382969.092 10 0 61003 63900.00000 0 11064359.409 -22278232.683 -5571206.815 10 0 61003 64800.00000 0 10608527.373 -21502980.001 -8650994.235 10 0 61003 65700.00000 0 10119009.678 -20338970.242 -11562377.006 10 0 61003 66600.00000 0 9653230.883 -18803247.102 -14248689.295 10 0 61003 67500.00000 0 9265169.612 -16925837.565 -16657664.255 10 0 61003 68400.00000 0 9002901.203 -14748673.782 -18742456.264 10 0 61003 69300.00000 0 8906404.554 -12324027.323 -20462554.544 10 0 61003 70200.00000 0 9005726.530 -9712521.522 -21784570.281 10 0 61003 71100.00000 0 9319581.803 -6980805.251 -22682882.172 10 0 61003 72000.00000 0 9854447.288 -4198985.512 -23140128.317 10 0 61003 72900.00000 0 10604189.187 -1437925.939 -23147535.640 10 0 61003 73800.00000 0 11550238.051 1233476.475 -22705081.259 10 0 61003 74700.00000 0 12662304.133 3750923.543 -21821483.461 10 0 61003 75600.00000 0 13899602.596 6057148.307 -20514023.249 10 0 61003 76500.00000 0 15212536.825 8104047.734 -18808200.488 10 0 61003 77400.00000 0 16544768.945 9854428.356 -16737231.827 10 0 61003 78300.00000 0 17835590.534 11283293.898 -14341400.379 10 0 61003 79200.00000 0 19022494.042 12378623.067 -11667269.949 10 0 61003 80100.00000 0 20043837.043 13141606.934 -8766779.095 10 0 61003 81000.00000 0 20841487.626 13586337.907 -5696232.586 10 0 61003 81900.00000 0 21363340.038 13738965.063 -2515209.722 10 0 61003 82800.00000 0 21565595.085 13636352.839 714589.330 10 0 61003 83700.00000 0 21414709.681 13324300.721 3930536.940 10 0 61003 84600.00000 0 20888933.740 12855399.777 7070288.149 10 0 61003 85500.00000 0 19979369.832 12286616.893 10072984.228 99